Wind_Speed
15 14 13 14 18 20 22 21 19 17 15 14 14 14 14 15 15 15 15 15 16 15 15 17 18 18 18 17 15 12 12 13 12 12 17 19 18 22 21 15 17 17 13 14 12 12 14 14 16 16 15 16 16 17 16 15 14 12 8 9 9 10 12 11 13 9 5 7 4 5 1 3 7 6 8 9 13 12 11 14 8 13 15 14 20 27 25 23
15 15 13 13 13 15 18 21 22 22 19 16 15 15 14 15 15 15 14 14 16 16 15 17 17 17 18 16 14 12 12 11 13 18 21 20 19 22 22 17 17 18 16 15 14 15 16 16 17 17 16 16 16 17 16 15 16 12 7 9 10 10 12 10 9 4 3 3 3 2 1 3 7 5 8 10 14 14 13 14 13 17 17 19 23 23 23 23
14 14 14 15 14 13 13 15 18 21 23 21 18 16 15 15 15 15 15 15 16 16 17 18 17 18 17 15 14 11 8 10 17 20 21 22 20 19 21 20 18 19 18 15 13 15 16 15 16 17 18 16 16 17 16 15 15 15 11 8 10 13 10 3 4 3 2 3 0 2 2 4 7 6 9 11 14 16 13 12 14 16 18 19 20 20 22 22
14 13 14 16 15 14 14 14 14 16 20 22 22 20 17 15 15 15 15 15 16 17 19 19 18 18 15 14 12 6 9 15 15 14 18 21 21 20 21 22 19 19 20 17 12 15 16 15 16 18 18 15 16 17 15 15 13 14 13 10 10 11 8 3 5 7 3 4 4 3 5 7 8 9 10 12 14 13 14 17 17 18 21 20 21 23 24 24
15 14 14 15 15 15 15 15 14 14 15 18 22 22 20 17 15 15 14 15 16 17 18 18 19 17 15 14 9 5 8 10 3 11 17 18 20 20 19 22 22 19 21 19 12 14 16 16 17 19 18 14 15 15 14 19 15 11 13 17 14 5 5 5 6 6 4 5 6 6 7 6 5 9 11 14 11 3 6 18 20 19 22 21 22 25 25 25
16 16 16 16 15 15 15 16 16 15 14 15 18 21 22 20 17 15 15 15 16 17 17 18 19 17 16 13 7 5 8 6 4 5 14 16 17 18 19 21 23 21 21 19 14 14 16 17 18 19 18 14 15 14 15 20 18 11 11 18 16 6 6 5 5 5 5 8 9 7 5 5 6 9 12 12 3 8 6 14 21 19 21 21 20 22 23 23
17 17 17 17 16 15 15 16 17 16 15 15 16 18 21 22 20 17 15 14 15 16 17 19 18 18 17 12 8 7 15 14 5 8 12 13 12 13 19 20 23 25 22 20 19 18 18 20 20 19 16 13 15 15 15 19 19 13 10 13 14 11 9 6 5 6 8 10 9 6 4 7 10 8 12 7 7 9 7 14 20 19 21 22 20 21 22 23
16 17 17 17 17 17 16 16 16 17 16 16 15 16 18 20 21 19 16 15 15 16 16 18 17 17 17 12 9 10 18 18 10 11 11 10 7 6 14 20 23 26 24 22 21 20 20 22 23 20 15 12 14 15 16 16 16 15 12 9 10 12 12 9 8 8 10 10 8 8 8 10 11 8 10 8 8 8 9 14 20 22 23 23 22 22 22 22
16 16 16 16 17 17 17 16 15 17 17 16 16 15 16 18 20 20 18 16 15 16 15 17 16 15 15 11 10 11 13 13 8 10 10 8 6 4 8 15 22 26 25 23 22 22 21 22 23 21 15 14 15 14 16 15 11 15 17 10 7 11 13 12 12 11 11 11 10 10 10 11 11 9 6 6 9 10 11 16 21 24 24 22 23 23 23 23
16 16 16 16 16 16 17 16 15 16 17 17 16 15 15 17 19 19 18 16 15 15 15 17 16 14 13 10 12 10 6 6 6 8 10 11 10 6 6 10 18 25 26 24 24 24 23 20 21 21 17 15 16 14 17 16 8 10 18 17 10 9 12 13 14 14 13 12 12 12 11 10 12 12 5 5 7 10 14 17 20 22 22 22 23 24 24 24
15 15 16 15 15 15 16 16 14 14 16 17 17 16 15 16 17 18 18 17 15 14 15 17 16 13 12 12 15 11 4 2 4 7 10 14 14 7 6 8 14 23 25 25 25 24 24 20 18 19 15 12 14 14 16 17 10 6 12 17 13 11 12 12 13 14 13 12 14 14 11 10 13 13 9 11 10 11 16 19 20 21 22 23 22 23 23 23
16 15 16 16 15 14 15 15 14 13 15 16 17 16 15 15 16 17 17 17 15 14 15 17 16 12 12 17 22 20 11 7 10 11 13 15 15 12 10 9 12 20 25 25 25 24 23 20 18 18 14 10 11 11 12 19 16 9 10 13 13 13 12 13 14 14 13 11 16 16 9 10 13 10 11 15 13 13 17 19 21 21 21 22 22 22 22 21
16 16 16 15 14 14 15 15 14 13 14 15 16 16 15 15 15 15 16 16 15 14 14 16 15 11 15 22 25 24 20 15 15 16 15 14 15 15 13 12 12 18 23 24 24 23 23 20 18 20 17 13 11 6 7 17 17 11 10 10 11 12 12 16 16 16 15 12 17 16 9 11 13 11 14 15 16 16 18 19 21 21 21 22 22 22 21 20
16 16 16 15 15 15 14 15 14 13 14 14 16 17 15 14 14 15 16 15 13 13 14 15 13 11 17 24 23 22 21 18 18 19 16 13 15 16 14 14 13 16 21 22 21 21 23 20 16 19 19 16 13 7 5 13 13 10 10 9 9 9 10 17 19 18 17 14 19 16 10 10 12 14 13 13 17 19 18 19 21 20 20 20 20 20 19 19
15 16 15 16 16 15 14 14 13 12 13 14 15 16 14 13 13 14 16 14 12 12 13 13 12 12 18 23 22 18 15 14 19 18 15 13 14 15 15 15 14 16 20 21 19 19 21 20 16 17 18 18 16 9 8 10 10 10 10 9 10 9 9 17 20 19 17 14 19 18 9 4 7 11 13 13 16 17 16 18 19 19 20 19 19 19 17 16
15 15 15 15 15 14 13 13 13 12 12 13 15 15 13 13 13 13 15 14 13 12 11 10 9 11 14 14 12 11 11 12 14 12 14 16 14 14 13 14 14 15 20 20 17 18 19 18 18 18 17 16 13 9 9 9 9 10 10 9 11 12 10 13 18 20 20 14 17 19 9 5 5 9 14 13 12 15 15 13 10 11 14 14 14 14 14 14
15 14 15 15 14 13 13 11 11 12 12 13 13 12 12 12 11 12 13 13 12 11 11 10 7 11 14 12 7 8 10 11 10 8 12 15 16 15 11 13 16 16 21 21 16 16 19 18 17 16 15 13 11 10 10 11 10 10 11 10 11 15 12 11 15 19 21 16 15 18 13 6 8 11 13 11 9 8 8 8 5 5 6 7 9 8 8 10
15 15 15 15 14 13 12 10 10 11 12 12 11 11 11 10 9 10 11 11 11 10 10 11 7 8 12 18 15 7 4 6 7 9 11 12 15 16 13 14 15 19 23 21 17 18 19 19 16 11 12 12 12 13 11 12 13 11 12 11 10 15 15 12 14 17 21 18 14 17 15 8 9 10 8 10 11 10 12 11 10 9 8 10 11 7 8 9
15 15 16 16 15 14 13 11 9 10 11 11 10 10 9 8 7 8 11 12 12 10 7 11 17 9 4 7 14 8 6 8 10 11 13 14 15 16 16 15 17 23 24 17 17 21 19 15 14 12 12 14 16 16 15 14 15 15 15 13 12 13 13 14 14 17 19 16 14 16 13 8 7 7 10 14 9 9 13 17 15 13 12 13 13 10 10 10
15 16 16 16 15 14 14 12 10 10 10 9 9 9 8 8 7 9 14 18 19 17 12 14 23 19 12 5 7 5 9 9 12 15 16 16 16 17 18 18 20 23 21 15 15 21 19 12 13 15 15 18 20 20 20 17 15 15 15 15 15 12 13 14 14 18 19 14 14 13 10 9 7 8 11 10 11 10 14 19 18 16 15 16 16 14 16 13
16 16 16 16 15 15 14 13 12 11 10 8 9 11 11 11 7 4 9 18 24 24 23 21 19 21 21 14 10 9 10 7 11 14 16 19 19 19 19 20 19 16 18 19 17 18 18 13 15 19 18 19 20 20 21 18 13 13 14 15 14 12 11 10 10 16 18 14 11 13 12 9 8 8 7 11 12 11 15 19 20 19 17 17 17 16 16 15
16 15 15 16 15 14 14 14 13 11 10 9 11 14 15 14 9 8 7 11 18 24 26 26 25 25 24 21 17 12 11 11 12 13 16 22 23 20 20 20 17 14 18 20 15 14 15 15 19 21 18 18 19 20 21 18 13 11 11 12 12 12 11 10 10 14 15 12 9 15 12 7 9 7 9 12 11 12 14 14 17 19 17 18 18 15 14 14
15 15 15 15 14 14 14 14 13 12 11 12 15 17 16 14 12 10 10 10 12 19 25 25 27 28 27 26 19 14 15 13 13 16 20 23 26 24 20 18 16 16 19 20 16 14 13 15 19 20 18 19 19 20 20 15 10 10 10 10 12 13 12 10 11 14 13 11 7 14 9 5 8 8 8 11 11 10 12 11 13 16 16 17 17 15 16 16
15 15 16 15 14 13 13 13 13 13 13 15 17 18 15 12 11 11 10 10 11 15 22 24 25 27 28 25 18 16 18 15 13 16 23 24 26 25 19 19 19 16 19 23 22 18 13 15 19 19 19 20 18 19 20 12 8 12 13 10 12 13 12 9 10 14 13 12 10 12 7 2 6 9 9 12 12 11 12 13 12 14 15 16 17 17 17 18
15 15 15 15 14 13 13 12 13 14 14 16 17 16 14 12 10 9 8 8 9 13 20 22 23 25 26 22 17 16 15 17 18 16 23 28 26 21 17 19 18 15 20 26 22 17 14 16 21 21 19 20 17 17 20 13 8 12 14 13 14 13 14 12 13 14 11 11 12 12 6 5 9 12 10 11 12 12 12 13 13 13 15 16 17 18 17 17
15 15 15 15 15 14 13 11 10 9 11 15 14 11 11 11 9 8 7 6 7 10 15 19 18 17 22 22 19 16 10 15 22 18 19 26 27 21 15 16 15 16 21 21 15 10 12 17 20 20 20 21 18 15 18 16 9 9 13 15 16 12 16 16 16 14 9 9 12 12 8 6 9 12 12 12 12 14 13 13 15 14 16 18 17 17 17 16
15 15 15 15 15 13 11 10 7 5 9 11 8 8 8 8 9 8 6 6 7 9 13 17 15 12 19 23 21 16 7 10 19 21 20 24 28 23 16 14 14 14 16 14 10 9 13 20 22 22 21 19 15 13 16 18 12 8 12 14 12 10 16 17 16 13 9 9 12 15 14 8 6 10 14 14 13 15 16 14 16 17 18 18 16 16 16 17
14 14 14 14 14 11 9 11 8 6 9 7 4 7 6 8 11 7 5 5 3 8 11 16 14 10 16 22 25 21 9 10 19 21 22 22 24 23 17 16 16 16 18 15 10 12 16 20 20 20 19 14 13 14 16 19 14 9 12 14 10 10 13 14 13 11 10 9 10 14 14 10 7 9 14 15 14 14 16 15 15 18 19 18 16 17 18 18
14 13 12 11 12 9 6 9 8 6 7 6 5 6 6 9 10 5 5 6 4 6 9 15 14 11 17 21 25 26 16 11 17 20 22 20 21 19 14 16 19 17 18 16 12 13 14 16 17 17 14 12 14 15 15 18 14 7 12 14 12 10 10 12 11 10 10 10 10 13 14 10 7 8 12 13 14 14 13 13 14 16 18 18 18 19 18 19
13 12 11 10 9 6 5 7 8 6 5 5 5 5 5 7 7 5 6 6 5 6 9 13 14 15 20 18 18 24 19 13 17 23 23 22 23 19 15 18 21 14 14 16 16 12 11 13 15 15 14 13 16 15 14 19 15 6 11 13 11 10 10 10 10 9 9 10 12 14 16 14 9 8 11 10 11 12 11 10 12 16 18 18 19 20 19 20
12 12 10 7 6 7 6 5 5 6 5 4 4 6 5 4 4 5 6 4 4 6 9 11 14 18 22 17 14 20 18 14 17 23 20 19 20 16 12 15 16 13 14 14 15 14 14 14 13 14 19 17 15 15 14 19 16 8 9 12 10 9 9 8 8 9 9 10 11 14 17 15 11 8 10 12 12 13 12 12 13 16 18 18 19 20 20 19
10 11 10 6 6 8 6 3 3 4 4 4 7 8 6 4 5 6 5 4 5 5 7 11 15 17 21 19 15 19 17 12 15 20 18 16 15 13 13 12 13 14 14 13 15 16 14 14 13 15 20 19 15 13 12 15 15 10 10 11 10 9 8 9 9 9 10 9 10 15 17 13 11 9 10 15 15 15 15 16 17 19 20 21 20 20 21 19
9 10 9 7 6 6 6 5 4 4 2 6 10 8 5 5 7 9 5 2 1 0 3 10 16 18 19 17 15 19 17 12 15 18 19 18 14 15 17 16 17 15 12 13 15 14 10 12 17 17 15 18 17 12 11 13 14 12 11 11 10 9 9 9 9 8 9 9 10 15 16 12 10 9 10 16 16 19 22 22 21 22 22 22 22 22 22 19
9 9 7 7 6 6 8 6 4 4 3 8 10 6 6 6 6 8 5 3 1 4 8 8 16 19 18 15 15 18 15 13 18 18 18 18 14 14 16 18 22 17 11 13 12 12 11 10 17 17 13 17 18 13 12 13 13 13 11 11 10 9 8 8 9 9 9 10 10 11 11 10 8 3 6 12 16 20 26 24 21 21 23 24 23 23 22 20
8 8 7 7 6 7 9 6 5 6 6 7 7 5 8 7 3 3 1 3 3 5 11 8 15 18 16 14 16 20 15 12 19 18 16 17 14 15 16 16 23 20 13 12 10 12 13 10 15 17 13 17 17 14 15 14 12 11 11 11 10 9 9 7 6 5 6 9 9 8 6 5 3 3 2 8 14 16 20 22 22 22 24 24 23 23 23 21
8 6 6 6 6 7 8 7 6 7 6 6 7 7 8 5 2 2 1 4 4 7 12 9 14 16 13 13 15 21 18 13 18 16 13 17 16 17 17 14 20 22 15 11 9 10 12 9 17 18 14 19 19 15 15 13 9 9 11 12 10 11 10 7 5 2 3 8 8 7 7 5 5 4 4 8 13 14 16 20 23 24 24 24 22 22 22 22
8 7 7 6 6 6 9 9 7 8 7 5 6 7 6 3 1 1 2 5 6 8 11 5 12 13 13 13 14 20 19 13 17 15 12 16 16 18 19 17 21 23 18 14 9 9 11 9 17 19 16 19 22 18 14 15 12 8 10 11 9 11 11 7 7 5 6 9 7 9 12 9 7 7 9 11 12 14 15 17 20 22 25 24 21 22 22 22
7 9 8 5 6 7 9 9 8 9 8 5 7 9 7 5 4 3 2 4 5 8 9 5 8 12 15 14 14 20 19 13 16 16 13 14 14 19 21 17 20 23 21 18 11 10 12 8 13 20 16 17 21 18 12 15 18 12 9 10 9 9 10 8 7 7 9 9 7 11 13 11 9 7 12 15 15 15 16 16 17 20 24 24 21 22 23 23
6 8 6 5 6 8 10 10 10 10 7 5 7 7 5 4 3 2 1 1 3 7 8 6 5 11 15 14 15 20 18 15 16 15 13 12 12 19 22 16 18 22 23 20 12 9 12 8 9 16 16 15 15 14 10 13 17 14 9 11 10 7 8 8 6 6 8 8 7 10 11 9 8 9 14 16 16 17 17 17 17 20 25 25 23 25 25 25
6 6 4 6 7 7 9 10 10 9 6 6 7 5 4 4 2 2 4 3 3 6 7 7 6 8 13 15 17 18 16 15 17 14 12 13 13 17 23 19 18 21 23 21 14 10 10 8 8 12 16 15 12 12 12 12 13 11 8 10 11 7 6 7 7 6 7 8 7 8 8 7 5 7 12 16 16 17 17 17 17 20 25 26 25 26 26 27
6 5 3 8 9 8 9 9 9 8 6 6 8 7 6 5 3 4 7 8 7 8 9 10 10 9 9 14 17 16 14 14 17 14 10 14 13 12 19 21 18 20 22 17 13 11 9 8 9 11 13 13 12 14 16 15 14 11 8 9 11 9 8 8 9 8 7 8 7 7 8 6 2 3 8 14 15 15 17 17 16 20 25 25 25 26 26 28
7 4 4 9 9 9 9 7 7 7 7 5 6 7 6 5 6 8 8 10 10 10 10 11 11 11 10 12 16 16 13 12 16 15 10 15 14 10 19 25 22 22 19 13 14 13 7 6 9 10 11 12 13 16 17 17 16 14 11 11 10 10 10 8 8 9 8 8 7 7 7 3 4 4 3 10 13 17 20 20 18 21 23 24 25 25 27 29
8 6 4 7 8 8 8 6 6 7 6 5 6 8 7 7 8 8 8 9 10 9 9 10 11 11 11 12 17 17 14 12 16 16 12 15 15 12 21 28 25 23 18 12 13 11 4 5 9 10 9 10 12 15 16 17 16 13 13 12 9 10 10 8 7 7 7 9 8 7 6 4 3 3 1 5 11 17 19 20 20 21 22 23 25 25 27 28
11 11 7 7 8 8 7 5 5 5 5 6 7 8 8 9 9 10 9 9 8 8 8 9 10 11 12 13 16 17 15 11 15 17 12 13 14 14 22 27 24 21 16 13 12 10 6 8 9 10 9 10 12 12 14 16 14 10 11 14 13 13 13 11 9 6 6 10 10 9 6 5 4 3 3 5 9 14 16 19 20 20 22 24 24 24 26 29
10 10 7 9 11 11 9 6 6 6 6 7 8 8 9 9 9 12 13 11 11 10 7 8 10 11 12 14 15 17 15 10 11 14 11 11 13 14 21 26 24 21 19 17 15 12 8 9 9 10 10 10 11 9 10 12 11 8 11 16 17 17 15 12 8 8 7 8 10 10 5 5 5 6 9 9 10 12 15 18 20 20 22 24 23 25 28 30
6 5 4 7 11 13 13 11 8 6 6 6 7 6 7 7 7 10 13 11 13 13 9 9 11 12 12 14 16 16 16 12 11 11 11 12 11 11 20 25 23 22 17 11 12 11 7 8 10 11 10 10 10 10 10 11 11 11 13 17 18 19 17 12 8 9 7 6 8 8 6 7 7 9 12 13 12 13 15 18 19 21 23 24 24 27 29 30
4 2 1 2 6 9 11 11 8 5 3 3 3 2 5 7 5 5 9 10 12 13 10 9 12 13 12 15 15 14 15 15 14 13 13 14 11 11 21 25 22 19 13 8 11 11 5 8 12 13 12 10 8 12 16 15 15 17 16 16 17 18 18 14 10 9 8 7 7 8 9 9 8 10 12 14 14 13 14 17 19 21 24 24 25 28 30 30
4 3 4 4 4 5 6 7 8 7 6 5 3 2 5 7 5 5 7 8 11 12 9 8 13 16 15 16 14 12 15 14 13 13 13 14 13 12 17 21 20 18 14 11 13 9 5 8 12 13 11 6 3 9 16 16 16 17 17 16 16 17 18 16 13 11 9 8 7 7 10 10 9 10 11 13 15 15 16 18 19 22 25 25 26 28 30 30
5 6 7 6 6 8 12 12 10 8 8 8 5 4 6 4 6 8 8 7 8 11 11 9 14 18 18 17 12 10 13 12 11 12 12 12 13 12 12 16 18 19 16 12 11 7 6 7 10 12 10 7 2 4 9 13 13 15 18 18 17 16 17 16 14 13 12 11 9 6 7 9 9 10 12 13 14 15 17 19 21 23 26 28 29 29 30 31
6 6 8 10 10 13 15 14 9 5 4 7 5 4 5 1 5 5 6 5 6 10 12 13 17 18 17 15 13 11 11 11 11 12 11 11 11 10 10 11 14 18 17 12 9 8 6 5 9 10 9 9 8 5 7 11 12 12 15 17 18 18 17 16 14 14 12 12 11 8 6 6 6 7 12 14 14 16 18 20 22 24 26 29 30 29 31 32
9 9 10 11 9 9 10 8 5 3 1 3 2 2 2 4 5 4 4 3 1 2 5 7 10 14 16 15 12 9 7 9 12 12 11 11 10 9 10 11 13 15 15 11 9 9 7 5 7 9 8 9 11 9 9 8 7 9 12 14 16 16 15 15 14 13 13 13 13 11 8 7 5 5 10 14 16 17 19 21 23 25 27 30 30 29 30 32
12 11 10 9 7 8 8 6 4 2 1 1 2 4 4 5 3 2 4 3 2 2 3 6 5 5 13 13 7 3 3 1 9 13 12 13 13 12 12 13 15 14 12 11 9 9 9 6 6 9 9 8 11 12 9 6 5 8 8 10 13 13 12 13 14 14 15 13 11 10 8 7 7 10 11 13 15 16 19 23 24 25 27 29 30 30 30 32
Wind_Direction
324 319 305 290 278 271 269 269 271 274 279 286 289 290 292 296 302 306 313 316 317 319 322 329 324 319 321 311 305 300 282 271 264 260 254 238 222 227 228 226 226 222 215 203 192 200 204 202 207 203 208 212 215 223 214 209 215 217 222 232 233 237 242 243 249 248 259 255 140 102 89 245 255 202 198 211 220 222 178 176 147 106 102 104 127 142 146 148
319 320 317 311 302 287 277 271 268 268 270 275 281 286 288 290 295 299 305 307 311 313 317 329 326 324 326 318 320 311 290 281 274 268 255 234 223 228 225 221 221 215 207 197 194 202 203 202 203 198 204 212 211 214 211 203 210 217 215 228 233 239 242 246 265 273 247 263 103 118 12 239 253 226 193 200 207 205 182 169 133 113 118 120 124 136 144 146
309 312 313 315 315 306 297 286 276 269 266 267 271 278 283 286 288 291 296 298 305 308 314 324 326 327 324 324 331 318 314 309 286 272 255 238 226 225 221 217 215 210 202 192 200 208 208 207 201 198 207 215 209 206 208 201 204 216 222 230 229 240 246 236 278 286 267 300 359 221 272 250 248 229 202 206 206 195 181 164 148 138 136 138 136 142 149 151
304 303 305 310 312 309 308 304 295 284 272 266 265 268 275 283 285 285 288 293 298 302 309 317 325 327 324 330 334 333 339 313 281 243 237 238 226 222 219 212 208 209 199 186 205 220 215 215 205 202 211 217 209 205 207 199 199 212 221 236 232 241 250 193 219 239 239 264 256 251 267 256 233 216 212 216 207 194 190 176 162 151 145 149 149 152 155 154
308 305 303 302 302 305 308 307 305 300 289 275 266 263 266 275 281 283 284 287 292 297 303 311 322 325 324 331 335 346 324 303 226 195 221 234 226 220 217 211 207 207 200 192 209 223 216 219 209 205 215 220 210 204 210 205 205 218 219 235 246 263 262 213 199 218 207 226 240 241 258 270 229 206 209 220 211 184 194 171 155 145 146 155 159 157 156 156
307 306 303 302 301 300 301 303 305 303 298 288 275 265 262 266 273 279 282 284 287 291 297 304 317 323 324 331 337 326 280 270 87 200 221 221 224 218 212 209 207 207 203 201 212 217 211 213 207 205 213 221 217 207 212 207 205 225 219 228 244 250 244 221 175 191 206 221 226 231 265 289 249 215 207 219 169 64 71 138 139 140 146 156 164 165 160 159
305 303 301 301 301 299 296 296 300 300 299 294 285 273 263 261 264 271 278 279 280 286 291 298 312 321 323 331 327 282 252 257 295 271 236 211 212 211 210 205 204 208 204 203 211 212 207 207 206 207 211 217 221 211 211 210 204 224 232 220 228 225 225 218 183 192 208 220 225 240 270 245 240 223 198 189 89 88 102 127 136 147 156 161 170 171 161 157
305 302 301 299 297 296 294 291 293 295 298 296 289 281 269 261 259 263 271 276 277 280 286 294 307 319 327 339 319 273 248 249 257 269 251 203 193 202 209 204 203 206 204 205 208 208 205 208 209 207 213 216 220 214 209 212 206 219 239 228 215 218 223 223 216 212 210 214 223 238 243 230 233 217 186 156 117 135 153 153 154 157 161 165 171 167 158 156
308 305 302 300 296 293 291 289 288 290 295 296 292 285 276 265 258 256 262 271 276 277 282 291 300 313 328 332 298 278 254 240 232 258 251 210 200 172 191 205 205 202 203 207 208 209 207 210 211 210 219 222 221 219 209 213 210 213 228 231 212 218 225 222 220 218 212 212 219 226 226 225 215 193 161 125 132 146 156 159 156 155 157 167 170 160 157 157
310 307 305 302 296 292 291 289 285 286 291 293 292 287 280 271 260 253 256 266 274 275 278 285 295 311 320 304 274 265 244 217 210 247 253 231 214 175 182 211 206 201 203 207 208 210 210 211 212 214 226 232 229 224 212 211 211 209 221 227 219 220 221 217 218 213 210 212 215 220 221 215 197 186 168 128 143 151 155 151 150 155 160 170 168 159 160 155
311 309 308 306 300 293 290 289 285 283 285 289 293 290 283 275 265 253 251 259 268 273 275 280 291 304 302 276 258 242 195 182 238 273 276 241 225 223 225 214 204 203 203 207 210 210 213 214 212 216 225 240 237 227 218 212 216 217 220 224 219 225 223 212 218 210 207 210 208 221 223 198 192 199 184 160 167 169 161 153 155 163 166 169 165 161 161 153
312 311 310 307 303 295 290 289 286 280 280 284 290 291 284 277 270 255 249 254 263 271 272 278 289 299 291 267 253 240 229 259 273 283 280 245 234 242 234 220 210 206 205 208 210 210 213 215 216 218 216 229 228 222 220 210 220 230 217 225 213 219 228 213 216 209 208 206 198 214 221 197 202 192 150 155 173 171 165 160 159 166 168 167 163 162 161 154
314 313 312 307 303 295 291 291 288 279 275 280 285 289 285 279 273 256 248 250 259 268 267 273 284 291 281 267 257 252 251 263 274 272 266 246 238 242 236 234 224 212 210 211 211 209 212 215 219 223 218 225 219 210 224 203 212 222 208 231 215 212 225 212 211 205 206 204 191 205 221 209 200 164 143 159 175 170 168 166 164 169 168 166 166 163 162 159
315 314 311 308 302 295 293 294 289 276 268 274 280 283 284 281 275 259 249 248 255 265 264 271 284 285 274 269 270 268 262 264 268 260 252 245 240 242 239 234 228 217 212 213 214 209 211 215 222 229 224 229 224 192 210 199 201 214 203 223 225 222 218 201 203 200 202 199 189 204 230 211 174 146 149 168 174 172 172 172 170 169 166 167 168 164 162 162
314 312 309 307 303 297 297 297 288 272 265 269 274 279 283 284 279 263 250 246 254 261 265 275 280 276 274 277 281 276 265 255 254 247 235 235 234 234 229 223 221 216 208 209 215 210 209 211 217 230 218 221 232 206 202 203 195 211 211 214 219 232 217 189 193 198 199 192 189 208 225 176 139 142 162 174 171 172 173 175 172 165 165 170 166 163 162 159
315 311 308 305 303 300 300 301 285 266 259 262 268 276 282 285 281 266 250 243 252 257 259 267 266 263 272 284 279 259 246 236 240 238 226 226 223 221 218 212 212 209 202 203 211 208 204 205 211 225 216 211 229 217 204 207 199 206 215 219 208 221 226 184 181 194 200 191 189 212 217 131 147 173 169 168 174 183 176 165 158 155 165 168 158 160 161 151
315 313 311 306 304 300 297 300 283 262 256 259 268 279 288 293 284 270 252 237 247 253 242 245 267 270 262 267 266 238 231 223 222 222 218 217 213 216 213 204 203 196 192 196 205 202 196 202 208 218 221 211 211 211 207 204 202 199 208 224 209 213 223 182 175 189 199 202 193 208 220 169 157 174 169 157 160 168 138 121 125 148 168 162 150 157 157 140
315 315 316 312 307 300 295 294 280 263 259 262 274 284 292 294 283 271 254 235 237 240 243 240 249 277 252 238 240 239 231 220 219 222 219 211 206 212 211 202 195 184 186 192 198 196 191 198 204 207 214 211 205 208 210 205 202 196 199 214 210 211 216 189 178 186 196 206 197 202 217 191 148 157 142 105 104 94 93 124 153 168 177 160 152 150 148 138
315 315 318 315 309 303 299 290 275 263 260 267 276 281 288 284 270 257 242 229 219 210 228 210 197 226 302 218 220 243 294 266 249 240 224 210 202 205 208 205 192 182 184 188 191 192 189 192 201 206 207 204 204 206 213 212 205 201 197 209 214 207 210 198 180 183 193 200 202 204 200 168 148 138 89 85 121 134 129 149 158 163 165 145 142 132 126 131
315 315 317 316 310 303 299 290 278 266 260 265 270 271 270 251 237 234 220 216 220 218 232 213 195 223 275 270 219 284 313 270 239 232 219 206 198 198 203 201 191 186 189 189 185 188 189 194 202 207 206 202 203 207 215 219 216 208 197 206 219 210 209 203 178 177 188 200 207 196 168 153 146 105 88 120 174 176 150 152 152 154 152 138 139 129 122 136
316 315 316 315 310 301 295 289 280 270 264 259 256 254 247 238 245 272 222 215 221 223 235 239 221 234 256 258 257 301 319 276 233 223 208 196 192 193 195 195 191 188 193 191 182 185 193 207 207 205 207 204 203 207 214 221 227 224 206 202 214 215 205 184 161 171 185 208 200 158 152 157 127 107 136 171 182 184 170 159 151 150 149 144 142 132 129 141
317 316 313 312 311 303 292 285 278 272 269 255 241 239 239 244 269 318 304 246 229 222 229 239 241 245 253 257 261 274 280 265 245 223 198 189 192 193 187 190 197 188 190 191 182 186 199 213 207 201 206 206 203 206 213 216 220 231 221 202 207 213 197 165 167 181 185 213 185 145 158 148 115 139 172 179 182 182 180 165 153 154 156 156 150 139 136 134
317 314 311 310 311 305 293 286 281 271 262 249 238 236 238 246 261 286 293 278 256 230 224 232 238 241 248 253 252 249 248 249 241 215 196 190 193 195 187 189 201 191 188 193 189 191 200 209 205 198 204 208 203 203 210 209 206 228 225 201 207 209 193 166 176 189 191 217 178 132 146 137 124 149 171 197 199 175 179 180 167 165 164 165 162 152 145 139
314 312 311 309 307 307 300 290 280 267 257 250 245 241 243 253 260 271 270 268 269 242 227 229 234 237 239 242 238 233 234 236 237 211 193 194 194 196 197 194 199 196 193 196 195 200 204 200 200 199 202 207 203 198 206 206 192 220 226 213 212 196 182 177 180 188 195 212 188 138 137 179 166 171 171 193 193 165 180 190 178 176 172 166 163 157 149 144
310 312 313 308 306 309 307 295 277 267 258 250 250 247 247 253 252 259 260 259 262 242 230 225 227 235 233 231 225 221 227 229 235 218 191 195 195 192 199 198 200 203 196 196 197 204 207 194 194 200 200 201 204 197 202 205 190 212 222 226 227 193 178 193 186 182 192 205 189 161 173 208 188 191 177 174 179 167 178 188 183 184 177 168 161 153 147 144
308 311 312 309 307 302 297 290 275 264 257 250 249 244 241 239 233 242 240 252 260 228 214 204 207 221 213 211 207 202 226 227 225 223 196 196 198 195 198 195 203 210 196 194 199 206 207 193 191 199 197 198 207 201 195 199 203 212 206 221 244 212 188 195 184 183 200 199 177 171 205 211 179 190 181 178 185 172 178 185 179 185 180 169 162 153 147 145
308 310 314 321 322 306 277 266 266 255 256 256 242 225 229 222 217 227 225 248 255 209 191 183 180 185 189 192 183 182 223 198 199 217 204 196 199 202 209 196 198 211 194 191 203 200 201 196 193 197 195 196 204 199 190 196 213 221 187 199 242 227 197 192 183 192 209 198 182 188 217 232 196 190 177 181 190 176 182 185 175 184 182 168 164 159 152 150
308 310 315 328 336 319 262 252 272 278 265 271 243 213 211 202 200 202 219 234 198 161 170 173 169 174 182 177 174 192 226 158 173 203 199 195 200 204 217 204 197 205 195 194 197 189 199 200 191 189 191 193 198 197 189 193 217 224 174 179 216 219 197 185 184 201 205 198 199 198 212 233 222 189 168 177 194 184 181 184 177 179 175 167 165 160 152 152
310 311 312 324 338 329 271 254 268 284 285 286 263 223 193 195 196 190 228 224 156 134 156 161 162 180 181 170 179 203 224 188 175 182 184 197 206 210 225 208 202 206 194 196 201 192 193 190 182 184 191 193 197 200 188 191 215 206 158 172 202 207 195 192 199 210 204 206 216 201 201 224 232 190 170 181 198 192 181 181 178 173 169 166 161 157 154 153
310 308 306 317 333 327 302 279 260 257 275 275 250 219 191 198 197 197 215 209 178 157 152 155 163 176 176 171 185 200 215 212 174 162 175 193 200 214 236 211 202 204 189 196 209 193 160 170 184 194 204 201 198 200 188 194 206 164 154 181 195 200 203 204 210 213 210 216 220 207 200 214 231 199 176 186 196 186 178 178 175 173 172 165 157 157 160 158
310 305 305 315 316 303 306 307 267 237 239 243 200 172 170 184 211 216 195 192 206 161 145 164 176 175 175 177 184 189 208 218 170 159 174 188 191 206 225 206 196 199 189 191 205 185 159 178 194 198 205 203 196 193 186 197 201 168 175 193 184 193 205 205 209 211 218 224 215 210 209 211 227 220 173 178 194 184 183 191 179 174 172 164 160 162 166 165
307 301 302 301 291 289 289 293 272 244 235 208 177 163 164 179 223 231 194 187 215 175 168 184 181 177 178 183 180 179 198 208 172 169 176 181 187 194 202 195 185 194 189 183 198 189 176 189 189 191 202 201 195 188 180 196 199 181 190 194 181 187 193 198 206 206 219 227 210 209 213 210 230 235 173 173 192 184 187 199 183 176 177 171 169 170 169 167
299 293 293 287 280 275 264 275 273 255 231 175 171 171 198 207 208 217 221 232 202 10 248 200 179 177 178 182 180 178 192 192 174 178 179 181 188 192 202 201 188 194 188 182 194 187 179 191 187 188 195 198 202 191 176 192 194 189 194 192 188 188 186 193 199 201 216 225 220 216 213 209 227 224 173 177 188 179 187 198 188 180 180 175 175 175 170 167
288 284 280 273 265 244 243 264 253 208 156 155 161 174 226 237 217 206 219 301 319 331 299 225 177 174 179 184 177 176 192 185 173 179 178 183 192 190 202 202 192 197 189 184 192 183 184 191 187 189 183 190 205 198 186 190 189 194 202 201 204 198 188 194 197 201 207 210 216 217 211 211 215 181 152 175 180 181 186 188 186 183 177 177 179 175 172 169
280 278 268 257 249 235 231 239 225 194 160 158 169 195 222 233 251 209 209 304 314 341 312 257 184 175 179 185 177 177 194 185 174 182 180 184 194 187 196 199 191 196 193 184 186 185 197 195 178 183 178 182 199 201 193 192 188 195 208 211 212 203 188 193 214 222 218 209 203 200 204 200 168 78 93 163 168 181 179 171 181 182 173 177 176 169 173 171
285 278 254 239 236 228 215 212 210 197 184 182 193 213 229 240 349 26 330 314 336 341 318 271 192 179 175 179 175 178 194 194 179 185 183 187 196 190 193 197 189 197 204 190 175 181 200 184 162 172 182 185 195 203 195 194 190 188 207 214 209 210 204 189 207 248 250 224 196 190 202 163 138 162 182 172 168 177 171 165 175 172 167 177 171 162 170 169
295 282 253 230 219 206 199 206 204 198 206 215 214 222 246 261 159 150 296 328 336 319 313 270 189 185 178 175 172 175 187 192 183 187 184 186 195 190 192 197 192 198 208 195 181 195 201 166 156 174 186 183 192 207 203 203 208 192 200 208 200 216 222 203 199 193 212 223 187 190 211 193 183 185 173 178 178 174 168 161 165 163 165 176 169 160 168 168
296 282 264 231 203 189 190 203 200 199 211 225 233 239 256 258 192 176 294 336 330 308 304 272 195 189 182 173 168 175 183 184 182 188 185 183 193 190 190 195 192 199 207 194 184 205 203 171 164 181 183 173 186 206 207 203 215 216 201 200 201 213 216 207 207 194 201 218 196 198 212 211 210 182 164 180 184 177 170 160 165 168 168 172 168 166 170 170
286 278 260 198 189 187 188 197 198 206 223 238 244 244 253 254 215 193 288 316 309 295 289 280 222 197 193 178 165 173 183 183 180 185 189 187 187 186 191 194 187 195 206 195 183 201 199 175 167 180 176 169 180 202 203 192 209 223 213 205 211 217 211 204 208 204 200 207 205 203 208 218 215 178 168 180 184 181 174 167 175 178 175 175 173 174 174 170
268 271 251 184 185 183 184 198 206 217 237 250 266 278 280 274 236 201 233 230 265 275 276 297 288 223 200 179 166 174 186 186 182 186 189 186 179 180 191 194 183 189 201 196 187 195 193 173 169 176 174 177 184 197 202 191 193 210 213 206 206 200 199 205 207 213 209 201 202 205 209 218 205 169 173 180 184 186 181 177 180 179 179 178 176 179 175 166
258 261 229 187 184 182 190 209 217 226 243 250 265 272 271 278 265 232 228 223 242 259 266 285 287 266 224 185 169 174 184 182 185 189 181 181 184 180 188 188 180 187 195 194 189 189 189 179 173 175 179 187 191 189 199 203 193 193 206 209 202 192 194 205 207 210 216 214 207 210 217 205 117 110 173 177 181 186 186 187 181 176 180 181 179 178 170 163
261 263 215 197 200 193 197 226 232 230 244 249 257 260 256 257 253 249 235 227 242 251 254 265 263 263 250 200 173 174 184 179 185 191 178 177 182 180 184 183 181 190 191 189 188 182 188 197 175 174 184 187 187 185 197 211 201 192 208 215 203 198 202 208 205 199 212 226 222 221 221 182 68 38 163 178 184 184 186 188 179 172 178 182 179 173 165 165
272 278 238 216 226 211 211 251 252 235 246 263 270 265 258 254 255 256 243 235 245 240 238 250 245 250 251 209 177 175 183 181 183 188 181 176 176 183 184 177 180 192 191 192 189 166 165 212 179 171 176 176 185 188 196 213 211 197 209 220 212 202 203 217 224 204 207 223 220 218 213 165 86 36 58 175 176 172 175 178 173 171 175 179 177 167 162 166
291 283 255 221 225 216 218 261 273 259 268 279 281 277 273 270 260 254 246 237 239 231 226 233 230 238 237 202 177 176 181 184 185 184 183 176 174 184 181 176 186 194 187 194 190 153 166 214 188 174 173 173 185 186 187 206 215 206 204 211 216 210 200 211 235 228 215 220 221 223 210 152 122 127 152 160 156 156 162 166 168 168 167 171 171 162 161 166
299 286 249 221 224 222 225 255 279 280 284 285 283 276 271 270 258 249 248 242 238 234 238 239 228 231 219 183 171 179 180 184 185 180 180 176 174 181 177 179 193 193 183 194 191 165 184 217 198 183 183 182 185 185 188 195 200 210 208 202 210 217 207 203 221 227 219 215 220 229 211 128 125 160 168 168 162 157 159 164 166 165 164 168 166 159 162 167
292 288 244 220 224 224 233 247 255 264 272 272 277 265 241 245 254 244 234 233 233 229 242 250 228 224 211 177 170 178 175 179 184 176 177 175 171 177 176 181 194 189 175 181 182 175 198 218 205 201 199 192 186 185 190 191 191 203 210 201 202 214 214 206 210 222 218 204 216 223 187 141 148 171 172 171 171 166 163 166 165 164 167 167 162 159 164 166
276 271 277 266 239 231 238 237 225 227 239 241 271 283 232 238 249 222 208 221 228 219 232 248 221 213 199 174 173 178 172 176 181 178 180 173 161 170 177 184 194 181 154 150 177 186 213 205 203 216 211 198 203 198 188 189 198 202 206 206 203 206 212 211 212 212 203 203 217 203 175 161 162 174 178 174 172 171 168 165 163 162 162 161 159 163 167 168
290 287 290 299 273 250 260 246 222 219 221 218 229 269 253 238 213 183 197 228 232 215 217 226 208 202 189 174 174 176 173 175 176 180 185 171 158 164 175 185 189 169 152 171 185 190 222 198 198 218 208 181 269 227 190 185 199 202 204 209 206 205 209 212 216 211 203 217 230 200 188 195 185 176 182 179 175 172 165 161 162 164 164 163 162 166 171 172
311 308 300 302 288 277 284 277 258 239 225 215 216 253 262 227 170 172 184 200 215 209 206 200 191 189 181 173 171 174 177 176 172 182 185 165 158 164 170 182 184 172 169 185 187 195 230 202 192 210 201 173 230 244 189 187 198 201 204 206 206 209 211 211 212 210 211 227 240 221 204 213 204 185 183 181 174 164 155 157 165 170 172 172 170 172 175 175
327 318 306 307 297 282 283 281 275 276 232 202 200 247 264 106 108 145 163 161 188 201 202 194 183 177 172 171 175 180 177 171 172 182 176 159 161 169 170 176 177 174 179 187 182 192 215 200 185 201 205 189 185 190 201 207 209 209 210 206 203 207 210 211 211 209 213 223 229 225 206 203 213 192 173 168 164 158 156 162 169 173 177 177 176 179 180 177
328 317 306 307 300 286 292 293 276 286 248 199 208 297 327 63 77 116 120 88 71 188 202 200 181 171 168 170 174 170 160 165 172 168 157 158 166 166 167 177 176 173 180 187 180 185 202 201 184 198 216 201 183 188 208 216 218 220 220 214 208 206 207 209 210 210 212 216 218 219 212 200 186 158 154 158 164 168 167 169 172 174 180 183 182 184 183 179
331 325 314 304 292 286 298 304 294 306 309 283 352 9 20 37 38 124 118 74 38 42 344 322 309 203 171 157 144 101 50 150 166 157 156 163 165 163 167 175 174 171 177 182 180 183 195 201 188 195 214 208 190 193 201 204 219 222 221 220 217 213 210 207 206 208 210 215 216 210 216 220 180 156 161 167 173 180 178 177 176 175 181 187 188 188 185 180
Height
1512 1511 1511 1510 1509 1509 1509 1509 1509 1509 1508 1508 1508 1508 1507 1506 1506 1505 1505 1504 1503 1502 1501 1500 1499 1498 1497 1496 1496 1496 1495 1495 1495 1495 1494 1494 1496 1496 1497 1499 1500 1501 1502 1503 1505 1508 1509 1509 1510 1511 1512 1512 1512 1510 1509 1509 1510 1509 1508 1508 1505 1500 1494 1487 1483 1480 1481 1480 1479 1486 1490 1492 1491 1489 1492 1493 1492 1489 1491 1495 1500 1504 1507 1510 1510 1513 1516 1518
1512 1511 1510 1509 1508 1507 1507 1506 1507 1507 1507 1507 1506 1506 1506 1505 1505 1504 1504 1503 1502 1501 1501 1499 1498 1497 1496 1496 1496 1495 1494 1494 1493 1492 1491 1492 1493 1494 1495 1497 1498 1499 1501 1502 1504 1506 1507 1507 1508 1509 1510 1508 1508 1507 1506 1506 1507 1505 1503 1505 1500 1493 1485 1478 1477 1477 1481 1483 1483 1488 1491 1492 1491 1488 1490 1492 1491 1489 1491 1495 1501 1507 1510 1514 1513 1515 1517 1519
1511 1511 1510 1508 1507 1506 1505 1504 1504 1504 1505 1505 1505 1505 1505 1504 1504 1503 1503 1502 1502 1501 1500 1499 1498 1497 1496 1495 1495 1494 1493 1493 1492 1489 1488 1489 1491 1492 1494 1495 1496 1498 1499 1501 1504 1506 1506 1506 1507 1508 1508 1505 1503 1503 1503 1503 1503 1501 1500 1500 1494 1485 1479 1478 1482 1483 1485 1487 1486 1490 1491 1492 1490 1489 1489 1489 1488 1487 1490 1495 1501 1506 1511 1515 1515 1516 1518 1520
1510 1509 1509 1508 1507 1505 1504 1503 1503 1502 1502 1503 1503 1503 1503 1503 1503 1502 1502 1501 1501 1500 1499 1498 1497 1496 1496 1495 1495 1494 1494 1493 1488 1485 1484 1486 1489 1490 1491 1493 1495 1497 1498 1500 1502 1505 1505 1505 1506 1506 1505 1502 1500 1500 1500 1500 1500 1498 1496 1494 1486 1480 1480 1482 1487 1488 1489 1491 1490 1491 1491 1490 1488 1488 1488 1486 1487 1487 1488 1493 1500 1506 1510 1515 1517 1518 1519 1521
1509 1508 1507 1506 1506 1504 1504 1502 1501 1501 1500 1500 1501 1501 1501 1502 1501 1501 1501 1500 1500 1499 1498 1497 1496 1496 1495 1495 1494 1494 1496 1492 1483 1481 1482 1484 1486 1487 1490 1492 1493 1495 1497 1499 1500 1502 1503 1503 1504 1504 1503 1498 1496 1497 1496 1496 1497 1495 1492 1489 1482 1481 1484 1484 1487 1490 1492 1493 1492 1491 1490 1488 1486 1486 1487 1485 1486 1487 1488 1492 1499 1506 1510 1515 1519 1518 1518 1520
1507 1506 1506 1505 1504 1503 1502 1501 1501 1500 1499 1499 1499 1499 1499 1500 1500 1500 1499 1499 1499 1498 1497 1496 1496 1496 1494 1495 1494 1494 1496 1487 1480 1482 1482 1483 1484 1486 1488 1490 1492 1494 1496 1498 1500 1501 1501 1502 1501 1500 1499 1496 1492 1492 1493 1493 1495 1494 1489 1486 1484 1485 1487 1485 1488 1492 1493 1493 1492 1490 1490 1489 1487 1486 1486 1485 1487 1490 1492 1496 1500 1505 1510 1516 1520 1519 1518 1519
1506 1505 1504 1503 1502 1502 1501 1500 1500 1499 1498 1497 1497 1497 1497 1498 1498 1498 1498 1498 1497 1497 1496 1496 1496 1495 1494 1494 1493 1494 1493 1485 1482 1484 1482 1483 1484 1485 1486 1488 1490 1492 1494 1496 1498 1499 1499 1499 1498 1496 1496 1493 1490 1489 1490 1491 1492 1493 1487 1484 1485 1487 1488 1488 1489 1492 1493 1493 1491 1491 1491 1490 1488 1486 1485 1488 1491 1494 1496 1500 1503 1506 1511 1516 1519 1519 1518 1518
1504 1503 1502 1501 1501 1500 1500 1499 1498 1498 1497 1496 1495 1495 1495 1496 1496 1496 1497 1496 1496 1496 1495 1495 1495 1495 1494 1493 1493 1493 1489 1485 1484 1483 1482 1483 1483 1484 1485 1487 1488 1490 1492 1494 1496 1497 1497 1497 1495 1494 1492 1490 1488 1486 1488 1489 1489 1491 1487 1483 1485 1487 1488 1489 1490 1491 1492 1492 1491 1492 1491 1489 1487 1485 1485 1489 1494 1496 1498 1501 1504 1507 1511 1515 1517 1517 1517 1517
1503 1502 1501 1500 1499 1498 1498 1497 1497 1496 1495 1495 1494 1494 1494 1494 1494 1494 1495 1495 1495 1495 1494 1494 1494 1494 1494 1493 1494 1491 1485 1483 1484 1483 1482 1483 1483 1484 1485 1486 1487 1488 1491 1492 1494 1495 1495 1494 1493 1492 1490 1487 1486 1484 1486 1488 1487 1487 1486 1484 1485 1487 1487 1489 1490 1490 1490 1490 1490 1490 1488 1487 1486 1486 1489 1492 1495 1497 1498 1500 1503 1506 1509 1513 1515 1515 1516 1516
1501 1500 1500 1498 1497 1497 1496 1496 1495 1495 1495 1494 1493 1493 1492 1492 1492 1492 1493 1494 1494 1494 1493 1493 1493 1493 1493 1494 1494 1489 1481 1481 1483 1482 1482 1482 1482 1483 1485 1486 1486 1487 1489 1491 1492 1493 1492 1492 1492 1492 1490 1486 1484 1483 1483 1485 1484 1483 1485 1485 1485 1486 1486 1487 1487 1487 1489 1488 1488 1488 1486 1484 1484 1487 1493 1496 1496 1497 1498 1499 1502 1504 1508 1512 1513 1514 1515 1516
1500 1499 1498 1497 1496 1495 1494 1494 1494 1494 1493 1493 1492 1491 1491 1490 1490 1491 1491 1492 1492 1493 1492 1492 1492 1492 1493 1494 1491 1484 1479 1480 1481 1481 1481 1481 1482 1483 1484 1485 1486 1487 1488 1490 1490 1491 1491 1491 1492 1492 1489 1486 1483 1482 1481 1482 1483 1483 1485 1484 1484 1486 1485 1486 1485 1485 1486 1486 1487 1485 1483 1483 1485 1486 1490 1495 1499 1498 1498 1500 1503 1505 1508 1511 1512 1514 1515 1515
1498 1497 1496 1495 1494 1493 1493 1493 1492 1493 1492 1492 1491 1490 1490 1489 1489 1489 1490 1490 1491 1491 1491 1491 1491 1491 1492 1490 1485 1480 1477 1478 1478 1479 1479 1479 1481 1481 1482 1483 1484 1485 1486 1488 1489 1489 1491 1491 1491 1489 1487 1486 1484 1483 1482 1482 1484 1483 1485 1485 1484 1485 1485 1484 1483 1484 1484 1483 1484 1484 1486 1487 1485 1486 1488 1495 1499 1498 1499 1501 1503 1507 1508 1510 1512 1513 1514 1515
1497 1496 1494 1494 1493 1492 1492 1491 1491 1491 1491 1490 1489 1489 1488 1488 1488 1488 1488 1489 1490 1490 1490 1490 1490 1491 1491 1484 1479 1478 1477 1476 1476 1477 1477 1478 1479 1480 1481 1482 1482 1484 1485 1486 1487 1488 1490 1490 1490 1488 1486 1485 1482 1482 1481 1480 1483 1484 1484 1484 1483 1485 1484 1481 1481 1482 1482 1481 1481 1484 1491 1489 1483 1487 1491 1495 1499 1498 1499 1501 1503 1506 1507 1510 1512 1513 1514 1514
1495 1494 1493 1492 1491 1491 1490 1489 1489 1489 1489 1489 1488 1488 1487 1487 1487 1486 1487 1488 1488 1489 1489 1489 1489 1491 1488 1480 1476 1477 1476 1475 1475 1474 1475 1477 1478 1479 1480 1481 1481 1482 1483 1485 1487 1488 1489 1489 1490 1488 1486 1484 1479 1481 1481 1480 1482 1483 1484 1484 1481 1482 1479 1474 1476 1479 1480 1479 1478 1483 1490 1483 1479 1488 1494 1496 1498 1497 1497 1499 1502 1505 1507 1510 1511 1512 1513 1514
1494 1493 1492 1491 1490 1489 1489 1488 1487 1487 1488 1487 1487 1486 1485 1486 1485 1485 1486 1486 1487 1487 1488 1488 1489 1490 1486 1478 1474 1473 1473 1473 1472 1472 1474 1476 1477 1478 1479 1480 1480 1481 1482 1484 1485 1486 1488 1488 1489 1486 1484 1484 1480 1480 1482 1480 1480 1481 1484 1485 1479 1477 1472 1468 1471 1474 1476 1476 1476 1482 1486 1484 1484 1489 1494 1496 1496 1497 1498 1499 1501 1504 1507 1510 1510 1512 1513 1515
1493 1492 1491 1489 1488 1488 1487 1486 1486 1486 1486 1486 1486 1485 1484 1485 1484 1484 1484 1485 1486 1486 1488 1488 1488 1489 1484 1476 1472 1471 1471 1471 1470 1471 1473 1474 1476 1477 1477 1479 1479 1480 1481 1483 1484 1485 1486 1487 1488 1485 1482 1482 1480 1480 1480 1480 1479 1478 1480 1480 1476 1475 1468 1464 1469 1469 1471 1473 1475 1478 1481 1487 1493 1491 1492 1495 1496 1498 1500 1502 1504 1506 1509 1510 1511 1513 1515 1517
1492 1491 1490 1488 1487 1486 1485 1485 1484 1484 1484 1484 1484 1483 1483 1483 1483 1483 1483 1484 1485 1485 1487 1486 1487 1489 1481 1472 1470 1469 1469 1469 1469 1471 1472 1472 1474 1475 1476 1477 1477 1479 1481 1482 1483 1483 1484 1485 1485 1483 1480 1478 1477 1477 1480 1482 1479 1475 1476 1474 1470 1470 1464 1463 1469 1467 1468 1471 1474 1476 1476 1483 1491 1490 1492 1495 1498 1501 1503 1506 1509 1510 1513 1514 1515 1519 1519 1519
1491 1489 1488 1487 1485 1485 1484 1483 1483 1483 1483 1482 1483 1483 1483 1482 1481 1482 1482 1483 1484 1485 1486 1485 1488 1487 1472 1465 1467 1466 1466 1468 1468 1469 1470 1470 1472 1474 1475 1475 1476 1477 1479 1480 1481 1480 1482 1482 1481 1480 1476 1475 1473 1472 1475 1475 1471 1470 1473 1472 1467 1465 1461 1461 1466 1466 1466 1469 1473 1476 1476 1479 1485 1489 1494 1497 1501 1505 1507 1510 1512 1513 1517 1519 1521 1523 1522 1520
1489 1487 1486 1485 1484 1483 1482 1482 1482 1481 1481 1482 1482 1482 1481 1481 1481 1481 1481 1482 1482 1482 1481 1479 1483 1477 1462 1461 1466 1465 1465 1466 1466 1466 1467 1469 1471 1472 1473 1474 1474 1475 1476 1475 1476 1476 1477 1477 1477 1476 1471 1469 1467 1465 1466 1462 1460 1462 1465 1467 1463 1460 1458 1456 1459 1461 1463 1470 1473 1473 1476 1481 1486 1493 1499 1502 1505 1507 1509 1510 1511 1514 1516 1518 1521 1522 1522 1521
1487 1486 1485 1484 1482 1481 1480 1480 1480 1480 1480 1481 1481 1481 1481 1480 1478 1476 1477 1479 1477 1476 1474 1472 1474 1469 1462 1464 1465 1464 1465 1464 1464 1465 1465 1467 1469 1471 1471 1471 1471 1471 1470 1468 1470 1472 1473 1473 1471 1466 1463 1462 1462 1462 1461 1456 1454 1455 1459 1463 1459 1456 1456 1451 1453 1457 1460 1469 1472 1470 1477 1485 1489 1499 1507 1506 1506 1507 1508 1509 1510 1513 1515 1516 1517 1518 1520 1520
1486 1485 1483 1482 1481 1479 1478 1478 1478 1478 1479 1479 1480 1481 1479 1476 1473 1471 1472 1473 1472 1472 1472 1469 1470 1468 1464 1464 1464 1464 1465 1463 1462 1462 1463 1465 1467 1467 1467 1466 1465 1465 1464 1463 1466 1469 1470 1468 1462 1459 1459 1459 1460 1461 1459 1456 1454 1453 1455 1459 1457 1455 1453 1449 1453 1457 1460 1467 1470 1472 1481 1487 1492 1505 1511 1507 1506 1506 1505 1507 1508 1511 1514 1515 1516 1517 1518 1517
1485 1483 1482 1481 1479 1478 1477 1476 1476 1476 1477 1478 1478 1478 1477 1475 1472 1472 1472 1470 1467 1469 1469 1468 1469 1466 1463 1464 1464 1466 1466 1463 1461 1460 1461 1463 1464 1462 1461 1461 1460 1458 1459 1460 1462 1466 1466 1461 1456 1457 1458 1458 1459 1459 1458 1457 1457 1456 1453 1455 1457 1453 1450 1454 1458 1458 1460 1464 1468 1475 1484 1490 1497 1505 1508 1505 1503 1504 1505 1506 1507 1509 1512 1514 1516 1517 1517 1518
1484 1482 1481 1479 1477 1476 1475 1474 1474 1475 1475 1475 1475 1475 1475 1474 1474 1475 1475 1470 1465 1465 1466 1466 1465 1463 1462 1462 1463 1465 1463 1461 1459 1457 1458 1459 1459 1458 1457 1457 1455 1454 1455 1454 1455 1460 1460 1456 1453 1455 1457 1457 1457 1457 1458 1457 1460 1460 1453 1454 1455 1447 1449 1460 1463 1462 1462 1461 1468 1480 1488 1492 1499 1504 1505 1505 1504 1504 1507 1509 1509 1510 1511 1512 1514 1516 1517 1518
1482 1480 1479 1477 1476 1474 1473 1473 1473 1472 1473 1472 1472 1473 1473 1474 1475 1475 1474 1470 1463 1459 1460 1461 1461 1459 1458 1458 1461 1462 1460 1459 1457 1453 1455 1456 1455 1456 1454 1453 1453 1450 1449 1448 1450 1454 1454 1452 1452 1454 1455 1455 1456 1458 1458 1459 1463 1462 1454 1451 1450 1445 1450 1460 1463 1464 1464 1464 1467 1482 1502 1504 1500 1504 1504 1503 1505 1506 1508 1509 1510 1510 1511 1512 1513 1515 1517 1518
1481 1479 1478 1476 1475 1473 1472 1472 1470 1470 1471 1470 1471 1471 1472 1474 1474 1474 1474 1470 1460 1453 1453 1455 1455 1453 1453 1456 1457 1457 1457 1456 1454 1451 1452 1453 1452 1453 1451 1450 1451 1447 1445 1446 1448 1451 1450 1449 1451 1453 1453 1453 1456 1457 1456 1458 1463 1463 1455 1450 1445 1444 1452 1458 1461 1464 1470 1473 1466 1478 1511 1514 1499 1499 1500 1498 1502 1505 1508 1507 1508 1510 1510 1512 1513 1515 1517 1518
1479 1478 1476 1475 1473 1471 1472 1470 1468 1469 1469 1469 1470 1470 1472 1472 1473 1474 1473 1468 1455 1444 1444 1448 1448 1445 1446 1451 1452 1456 1457 1451 1450 1450 1450 1451 1451 1450 1449 1447 1446 1444 1442 1444 1448 1448 1446 1446 1448 1450 1452 1453 1454 1453 1453 1456 1461 1461 1454 1450 1445 1443 1452 1457 1460 1466 1473 1474 1467 1475 1500 1501 1492 1493 1493 1493 1497 1502 1508 1507 1507 1510 1509 1511 1513 1514 1516 1518
1478 1477 1475 1473 1471 1470 1470 1469 1468 1468 1468 1468 1468 1468 1471 1471 1472 1473 1471 1467 1450 1433 1434 1441 1442 1439 1439 1444 1448 1453 1450 1442 1446 1449 1447 1449 1450 1448 1447 1443 1443 1442 1439 1444 1449 1446 1442 1444 1445 1447 1449 1451 1453 1452 1453 1455 1459 1456 1447 1450 1452 1448 1451 1454 1458 1466 1466 1465 1468 1473 1482 1487 1489 1486 1484 1490 1493 1496 1503 1504 1505 1509 1508 1510 1512 1513 1515 1517
1476 1475 1474 1472 1470 1469 1468 1468 1467 1467 1468 1467 1466 1468 1469 1469 1472 1472 1470 1463 1439 1420 1425 1434 1437 1437 1437 1441 1446 1446 1438 1434 1440 1444 1445 1448 1448 1447 1444 1439 1440 1439 1434 1440 1447 1443 1439 1440 1441 1443 1447 1450 1451 1450 1450 1454 1457 1450 1444 1451 1455 1451 1451 1452 1459 1464 1460 1465 1476 1473 1475 1486 1485 1475 1478 1488 1490 1493 1497 1499 1501 1504 1505 1508 1511 1513 1515 1518
1475 1474 1473 1471 1469 1468 1468 1468 1467 1467 1467 1466 1466 1467 1466 1468 1472 1470 1468 1455 1427 1416 1424 1429 1433 1435 1434 1439 1442 1441 1436 1432 1434 1439 1445 1448 1446 1446 1443 1438 1438 1437 1433 1437 1441 1439 1437 1438 1441 1445 1449 1449 1449 1447 1447 1453 1454 1445 1445 1453 1454 1453 1453 1455 1461 1460 1460 1473 1480 1472 1473 1487 1483 1471 1478 1488 1489 1490 1493 1494 1496 1499 1503 1507 1509 1513 1515 1518
1474 1473 1472 1470 1469 1469 1468 1467 1467 1467 1467 1467 1467 1467 1467 1469 1469 1469 1470 1449 1421 1418 1425 1426 1429 1431 1431 1435 1438 1438 1436 1431 1429 1436 1445 1447 1446 1446 1443 1437 1436 1435 1436 1439 1439 1434 1435 1441 1445 1447 1448 1446 1446 1446 1447 1451 1450 1445 1450 1456 1457 1457 1455 1457 1457 1457 1471 1481 1474 1465 1467 1480 1485 1473 1475 1485 1485 1486 1490 1492 1495 1498 1502 1506 1508 1513 1515 1517
1472 1472 1471 1470 1469 1468 1468 1467 1466 1466 1466 1466 1467 1468 1470 1469 1466 1465 1459 1435 1418 1420 1424 1426 1426 1424 1427 1431 1431 1434 1434 1428 1426 1432 1440 1442 1443 1445 1441 1436 1435 1435 1435 1439 1439 1433 1437 1446 1446 1445 1445 1443 1444 1446 1447 1449 1447 1450 1455 1456 1461 1464 1461 1464 1463 1464 1482 1483 1468 1462 1462 1474 1485 1474 1470 1479 1479 1482 1489 1490 1492 1497 1501 1505 1508 1512 1515 1517
1471 1470 1469 1469 1468 1467 1467 1467 1466 1465 1465 1466 1467 1468 1469 1470 1468 1458 1439 1423 1423 1425 1420 1421 1422 1419 1423 1426 1425 1429 1431 1426 1425 1428 1433 1436 1437 1438 1435 1429 1429 1431 1434 1439 1437 1432 1438 1443 1442 1444 1443 1441 1443 1446 1449 1450 1448 1452 1455 1454 1465 1473 1475 1481 1479 1475 1481 1475 1462 1461 1463 1473 1478 1465 1464 1475 1476 1480 1487 1488 1491 1495 1499 1504 1507 1511 1514 1516
1470 1469 1468 1468 1467 1467 1467 1466 1465 1465 1464 1465 1468 1468 1467 1465 1457 1443 1432 1427 1429 1427 1421 1417 1416 1416 1421 1422 1422 1426 1426 1423 1424 1427 1429 1432 1434 1434 1431 1424 1422 1426 1433 1437 1435 1435 1444 1444 1440 1444 1442 1440 1441 1442 1449 1451 1448 1452 1452 1453 1463 1472 1484 1492 1485 1481 1483 1472 1459 1455 1461 1472 1470 1457 1459 1468 1471 1476 1482 1486 1490 1493 1496 1501 1506 1510 1512 1515
1468 1467 1467 1466 1466 1467 1466 1465 1465 1465 1465 1466 1468 1469 1469 1461 1443 1430 1433 1436 1432 1429 1426 1417 1413 1416 1419 1418 1418 1421 1422 1419 1420 1425 1427 1430 1433 1433 1429 1423 1421 1422 1426 1433 1433 1437 1451 1449 1438 1438 1439 1439 1438 1437 1443 1445 1446 1450 1446 1447 1454 1457 1474 1486 1479 1478 1482 1472 1462 1459 1463 1469 1468 1462 1458 1459 1464 1470 1475 1481 1487 1491 1495 1501 1505 1508 1511 1514
1467 1466 1466 1465 1465 1466 1465 1465 1465 1464 1465 1466 1467 1469 1464 1453 1441 1436 1439 1441 1436 1434 1430 1419 1413 1415 1416 1415 1414 1417 1418 1416 1418 1423 1425 1426 1428 1427 1425 1421 1420 1420 1422 1430 1432 1433 1444 1442 1431 1433 1436 1438 1440 1437 1437 1441 1447 1450 1444 1445 1449 1445 1454 1468 1466 1463 1467 1468 1466 1464 1464 1463 1465 1466 1459 1457 1462 1466 1469 1477 1485 1490 1494 1499 1504 1506 1510 1513
1466 1465 1465 1465 1465 1465 1465 1465 1465 1465 1465 1465 1466 1464 1453 1442 1443 1447 1446 1444 1442 1440 1435 1424 1413 1412 1413 1411 1411 1415 1415 1414 1417 1420 1422 1423 1422 1421 1421 1418 1417 1419 1418 1421 1425 1430 1439 1435 1427 1434 1438 1437 1441 1438 1435 1441 1446 1448 1447 1446 1442 1436 1440 1457 1466 1461 1463 1471 1468 1464 1465 1464 1469 1473 1464 1461 1464 1464 1468 1475 1481 1488 1493 1499 1502 1505 1509 1512
1466 1465 1464 1465 1465 1465 1465 1464 1464 1465 1465 1464 1462 1455 1445 1441 1446 1449 1446 1444 1444 1442 1439 1428 1412 1409 1410 1406 1407 1414 1413 1413 1416 1417 1417 1420 1419 1417 1419 1416 1414 1416 1413 1414 1421 1425 1428 1431 1430 1435 1439 1437 1439 1440 1437 1437 1439 1444 1448 1443 1437 1438 1438 1448 1464 1470 1473 1475 1467 1465 1468 1466 1471 1475 1468 1465 1466 1466 1468 1474 1480 1487 1493 1498 1501 1505 1509 1512
1465 1465 1464 1464 1464 1464 1464 1464 1463 1464 1464 1463 1459 1449 1442 1442 1443 1445 1444 1444 1444 1443 1441 1431 1414 1406 1404 1400 1404 1410 1410 1411 1414 1413 1413 1417 1416 1413 1415 1415 1413 1414 1412 1412 1421 1420 1417 1430 1437 1433 1435 1437 1439 1442 1442 1438 1436 1437 1440 1437 1438 1449 1449 1446 1459 1472 1477 1478 1471 1468 1467 1461 1461 1465 1466 1467 1468 1467 1469 1476 1482 1487 1491 1497 1501 1505 1509 1512
1464 1464 1462 1462 1462 1462 1463 1463 1463 1464 1464 1460 1453 1445 1440 1439 1440 1442 1444 1444 1444 1442 1437 1428 1417 1406 1398 1394 1400 1406 1408 1409 1411 1410 1410 1413 1413 1410 1410 1412 1412 1415 1413 1410 1418 1418 1413 1430 1442 1433 1431 1437 1438 1441 1443 1441 1438 1434 1435 1435 1435 1443 1448 1446 1452 1459 1467 1476 1475 1472 1469 1461 1451 1451 1459 1465 1464 1465 1469 1476 1481 1484 1489 1495 1500 1504 1507 1510
1464 1462 1461 1461 1462 1462 1461 1462 1462 1462 1460 1455 1447 1441 1438 1438 1439 1442 1443 1442 1443 1440 1433 1426 1423 1413 1398 1392 1397 1403 1405 1407 1407 1406 1406 1408 1411 1410 1408 1407 1409 1414 1414 1410 1415 1416 1413 1426 1441 1435 1431 1437 1438 1436 1437 1437 1438 1439 1441 1440 1437 1438 1443 1447 1449 1446 1452 1466 1472 1475 1475 1460 1443 1443 1452 1458 1461 1463 1467 1473 1478 1482 1488 1494 1498 1503 1506 1508
1463 1461 1459 1459 1461 1461 1461 1461 1460 1457 1454 1449 1445 1442 1439 1438 1439 1440 1441 1441 1440 1438 1432 1428 1427 1420 1406 1396 1396 1399 1402 1404 1404 1403 1403 1406 1410 1410 1407 1405 1409 1412 1413 1412 1414 1416 1416 1423 1434 1436 1433 1435 1433 1429 1430 1432 1433 1439 1443 1439 1437 1440 1445 1455 1459 1447 1443 1452 1457 1466 1470 1456 1443 1443 1447 1451 1458 1461 1464 1470 1477 1482 1487 1493 1498 1501 1504 1508
1462 1459 1457 1458 1459 1459 1460 1459 1455 1452 1449 1445 1443 1441 1439 1438 1438 1437 1438 1439 1438 1435 1432 1428 1425 1421 1412 1399 1394 1398 1400 1402 1403 1401 1401 1404 1406 1407 1405 1405 1411 1412 1411 1413 1413 1414 1417 1420 1428 1433 1430 1428 1429 1427 1430 1431 1428 1435 1440 1434 1432 1437 1440 1452 1460 1451 1445 1445 1443 1451 1461 1456 1449 1447 1446 1448 1453 1457 1462 1468 1475 1482 1488 1492 1497 1501 1504 1508
1460 1457 1456 1457 1457 1458 1459 1456 1450 1447 1445 1442 1440 1439 1438 1437 1436 1434 1433 1435 1434 1430 1429 1426 1421 1417 1410 1397 1393 1396 1398 1400 1402 1400 1400 1403 1404 1405 1403 1406 1414 1413 1411 1415 1414 1415 1421 1422 1426 1431 1426 1424 1427 1425 1428 1430 1428 1433 1437 1432 1431 1435 1436 1442 1444 1442 1448 1449 1444 1451 1462 1460 1454 1451 1449 1449 1450 1455 1462 1467 1473 1482 1487 1492 1496 1500 1503 1507
1459 1456 1455 1455 1455 1456 1457 1452 1447 1445 1443 1442 1441 1439 1438 1436 1435 1433 1431 1431 1429 1426 1426 1423 1417 1413 1405 1395 1392 1395 1398 1401 1401 1398 1400 1402 1405 1406 1405 1408 1414 1412 1412 1416 1414 1418 1427 1425 1423 1432 1438 1437 1435 1432 1433 1433 1429 1430 1432 1433 1433 1433 1436 1441 1439 1439 1449 1450 1444 1453 1462 1459 1454 1453 1453 1452 1453 1457 1463 1468 1474 1481 1486 1492 1496 1499 1502 1507
1458 1455 1453 1454 1453 1453 1453 1450 1448 1447 1444 1444 1443 1441 1440 1437 1434 1432 1431 1430 1428 1425 1424 1420 1414 1409 1400 1393 1394 1395 1397 1401 1400 1399 1401 1402 1404 1406 1407 1412 1414 1410 1413 1416 1414 1419 1427 1421 1417 1429 1442 1445 1442 1440 1437 1432 1430 1430 1430 1431 1434 1433 1435 1441 1444 1449 1454 1450 1445 1449 1456 1459 1456 1455 1455 1456 1458 1461 1465 1470 1476 1481 1486 1491 1495 1499 1502 1506
1458 1455 1452 1452 1452 1450 1449 1448 1449 1448 1446 1445 1443 1439 1439 1437 1432 1431 1430 1429 1427 1425 1425 1421 1414 1408 1399 1395 1398 1398 1397 1400 1400 1400 1401 1403 1405 1405 1407 1414 1413 1411 1415 1417 1416 1420 1423 1418 1415 1421 1427 1429 1431 1432 1428 1426 1431 1436 1433 1431 1433 1434 1433 1437 1446 1451 1448 1449 1450 1445 1448 1460 1462 1456 1456 1457 1459 1463 1467 1470 1475 1480 1486 1491 1495 1499 1502 1506
1458 1456 1453 1452 1450 1447 1446 1445 1446 1446 1444 1444 1442 1438 1437 1435 1431 1429 1428 1427 1425 1424 1425 1421 1414 1408 1401 1397 1399 1399 1399 1399 1399 1400 1400 1401 1404 1407 1410 1414 1413 1413 1417 1418 1419 1421 1423 1421 1419 1418 1416 1415 1417 1419 1420 1425 1431 1434 1434 1432 1432 1433 1433 1437 1445 1445 1443 1452 1455 1443 1443 1457 1459 1454 1455 1456 1460 1464 1466 1470 1474 1479 1486 1491 1495 1498 1502 1505
1457 1454 1452 1452 1450 1445 1443 1442 1442 1443 1443 1443 1441 1437 1435 1433 1430 1428 1427 1426 1424 1423 1423 1420 1413 1407 1400 1397 1399 1400 1399 1400 1401 1401 1398 1397 1403 1408 1411 1412 1413 1414 1418 1420 1421 1421 1423 1424 1421 1419 1418 1416 1417 1414 1413 1420 1426 1427 1430 1432 1431 1432 1435 1438 1442 1440 1441 1451 1451 1440 1442 1451 1451 1451 1454 1454 1457 1461 1465 1470 1475 1480 1486 1490 1494 1498 1501 1504
1457 1454 1451 1451 1449 1444 1441 1439 1439 1439 1440 1440 1439 1435 1432 1427 1423 1421 1420 1422 1423 1421 1421 1418 1410 1402 1397 1395 1398 1400 1400 1401 1404 1403 1397 1397 1403 1408 1410 1412 1412 1414 1418 1421 1421 1421 1424 1424 1422 1422 1423 1423 1422 1418 1415 1419 1424 1426 1427 1429 1431 1433 1434 1437 1440 1440 1442 1446 1443 1440 1445 1447 1444 1447 1450 1451 1455 1460 1465 1471 1476 1480 1485 1488 1491 1496 1498 1501
1458 1456 1453 1451 1447 1442 1438 1436 1435 1435 1435 1436 1436 1432 1425 1420 1417 1415 1414 1418 1421 1419 1416 1411 1403 1397 1396 1396 1398 1399 1397 1398 1402 1401 1397 1400 1405 1406 1409 1410 1409 1413 1418 1420 1421 1424 1426 1425 1422 1423 1428 1428 1426 1426 1424 1423 1424 1427 1427 1425 1428 1433 1435 1437 1440 1441 1445 1447 1443 1443 1449 1449 1444 1443 1446 1451 1456 1460 1465 1470 1473 1478 1483 1486 1490 1493 1496 1499
1459 1457 1455 1452 1446 1439 1435 1433 1431 1432 1433 1432 1430 1426 1421 1417 1415 1414 1414 1415 1415 1414 1410 1405 1400 1396 1395 1398 1400 1399 1397 1396 1398 1398 1398 1402 1405 1405 1407 1408 1408 1412 1417 1419 1422 1424 1427 1427 1423 1426 1434 1432 1427 1431 1432 1427 1428 1432 1430 1427 1427 1431 1434 1437 1439 1440 1444 1447 1447 1448 1451 1450 1445 1444 1447 1452 1456 1459 1463 1467 1471 1476 1480 1484 1488 1491 1494 1497
1458 1456 1455 1454 1447 1438 1433 1430 1427 1429 1431 1428 1425 1422 1420 1417 1414 1413 1415 1414 1412 1412 1410 1407 1404 1398 1395 1400 1405 1404 1403 1401 1399 1399 1400 1401 1403 1404 1406 1407 1407 1412 1416 1418 1421 1423 1426 1429 1428 1430 1437 1433 1427 1430 1433 1434 1441 1442 1434 1428 1427 1428 1430 1433 1435 1437 1440 1443 1446 1449 1449 1444 1442 1445 1450 1453 1455 1457 1460 1463 1467 1472 1477 1482 1486 1488 1492 1495